Regional Weather Roundup
Issued by NWS

Home | Current Version | Previous Version | Graphics & Text | Print | Product List | Glossary On
Versions: 1 2 3 4 5 6 7 8 9 10 11 12 13 14 15 16 17 18 19 20 21 22 23 24 25 26 27 28 29 30 31 32 33 34 35 36 37 38 39 40 41 42 43 44 45 46 47 48 49 50
000
ASUS45 KCYS 201510
RWRWY

WYOMING REGIONAL WEATHER ROUNDUP
NATIONAL WEATHER SERVICE CHEYENNE WY
900 AM MDT SAT SEP 20 2014

NOTE:  "FAIR" INDICATES FEW OR NO CLOUDS BELOW 12,000 FEET
WITH NO SIGNIFICANT WEATHER AND/OR OBSTRUCTIONS TO VISIBILITY.

WYZ001-201600-
YELLOWSTONE NATIONAL PARK

CITY           SKY/WX    TMP DP  RH WIND       PRES   REMARKS
LK YELLOWSTONE   N/A     46  42  86 CALM      30.43R
W YELLOWSTONE  NOT AVBL

$$
WYZ002>013-054>058-071-098>099-201600-
NORTHERN WYOMING

CITY           SKY/WX    TMP DP  RH WIND       PRES   REMARKS
JACKSON        SUNNY     43  39  87 CALM      30.37S
CODY             N/A    N/A N/A N/A MISG        N/A
GREYBULL       MOSUNNY   57  47  69 CALM      30.23R
WORLAND        SUNNY     57  46  66 CALM      30.23R
SHERIDAN       SUNNY     63  45  51 NW10      30.23R
BUFFALO        SUNNY     61  42  49 N18G25    30.25R
GILLETTE       SUNNY     62  45  53 NW12      30.21R
HULETT         FAIR      61  45  55 MISG      30.20
NEWCASTLE      FAIR      63  45  51 NW12      30.19

$$
WYZ014>020-022>026-101>103-201600-
CENTRAL WYOMING

CITY           SKY/WX    TMP DP  RH WIND       PRES   REMARKS
BIG PINEY      SUNNY     50  31  48 CALM      30.37R
PINEDALE       SUNNY     45  36  70 CALM      30.37S
DUBOIS         FAIR      46  36  66 NW15      30.37S
LANDER         SUNNY     57  39  51 SE3       30.26S
RIVERTON       SUNNY     61  43  51 SW6       30.28R
CASPER         SUNNY     60  44  55 SW10      30.25R
DOUGLAS        SUNNY     57  45  64 NW7       30.25R

$$
WYZ021-027>030-104>119-201600-
SOUTHERN WYOMING

CITY           SKY/WX    TMP DP  RH WIND       PRES   REMARKS
EVANSTON       SUNNY     54  37  52 CALM      30.36R
KEMMERER       SUNNY     50  36  57 N8        30.38R
FORT BRIDGER   FAIR      55  39  55 CALM      30.39R
ROCK SPRINGS   SUNNY     56  36  47 NE6       30.35R
DIXON          FAIR      52  39  62 E7        30.36S
RAWLINS        SUNNY     57  36  45 VRB3      30.34R
SARATOGA       FAIR      54  39  58 SE5       30.36S
LARAMIE        SUNNY     54  37  52 S3        30.35R
CHEYENNE       SUNNY     62  45  53 NW3       30.29R
TORRINGTON     SUNNY     62  49  62 NW9       30.18R
PINE BLUFFS    FAIR      61  46  59 CALM      30.25R

$$


USA.gov is the U.S. government's official web portal to all federal, state and local government web resources and services.